Time,TemperatureF,DewpointF,PressureIn,WindDirection,WindDirectionDegrees,WindSpeedMPH,WindSpeedGustMPH,Humidity,HourlyPrecipIn,Conditions,Clouds,dailyrainin,SoftwareType,DateUTC
2013-06-18 00:08:00,76.8,75.6,29.87,SW,225,3.8,-999.0,96,-99.99,,,0.00,Acu-Link.com,2013-06-18 05:08:00,
2013-06-18 00:23:00,76.6,75.4,29.86,South,180,3.1,-999.0,96,-99.99,,,0.00,Acu-Link.com,2013-06-18 05:23:00,
2013-06-18 00:39:00,76.6,75.4,29.87,SSW,202,3.8,-999.0,96,-99.99,,,0.00,Acu-Link.com,2013-06-18 05:39:00,
2013-06-18 00:54:00,76.3,75.4,29.87,SSW,202,0.0,-999.0,97,-99.99,,,0.00,Acu-Link.com,2013-06-18 05:54:00,
2013-06-18 01:09:00,75.9,75.3,29.88,South,180,0.0,-999.0,98,-99.99,,,0.00,Acu-Link.com,2013-06-18 06:09:00,
2013-06-18 01:25:00,75.6,75.0,29.87,SSW,202,0.0,-999.0,98,-99.99,,,0.00,Acu-Link.com,2013-06-18 06:25:00,
2013-06-18 01:40:00,75.4,75.1,29.87,SW,225,0.0,-999.0,99,-99.99,,,0.00,Acu-Link.com,2013-06-18 06:40:00,
2013-06-18 01:55:00,75.2,74.9,29.87,South,180,0.0,-999.0,99,-99.99,,,0.00,Acu-Link.com,2013-06-18 06:55:00,
2013-06-18 02:11:00,74.8,74.5,29.87,SSE,157,0.0,-999.0,99,-99.99,,,0.00,Acu-Link.com,2013-06-18 07:11:00,
2013-06-18 02:26:00,74.8,74.5,29.88,SSE,157,0.0,-999.0,99,-99.99,,,0.00,Acu-Link.com,2013-06-18 07:26:00,
2013-06-18 02:41:00,74.5,74.2,29.88,SW,225,0.0,-999.0,99,-99.99,,,0.00,Acu-Link.com,2013-06-18 07:41:00,
2013-06-18 02:56:00,74.3,74.0,29.87,SW,225,0.0,-999.0,99,-99.99,,,0.00,Acu-Link.com,2013-06-18 07:56:00,
2013-06-18 03:12:00,74.3,74.0,29.87,SSW,202,0.0,-999.0,99,-99.99,,,0.00,Acu-Link.com,2013-06-18 08:12:00,
2013-06-18 03:27:00,74.1,73.8,29.87,West,270,0.0,-999.0,99,-99.99,,,0.00,Acu-Link.com,2013-06-18 08:27:00,
2013-06-18 03:42:00,74.1,73.8,29.87,SW,225,0.0,-999.0,99,-99.99,,,0.00,Acu-Link.com,2013-06-18 08:42:00,
2013-06-18 03:57:00,74.1,73.8,29.87,SSE,157,0.0,-999.0,99,-99.99,,,0.00,Acu-Link.com,2013-06-18 08:57:00,
2013-06-18 04:12:00,74.3,74.0,29.87,South,180,0.0,-999.0,99,-99.99,,,0.00,Acu-Link.com,2013-06-18 09:12:00,
2013-06-18 04:27:00,74.1,73.8,29.87,SSW,202,0.0,-999.0,99,-99.99,,,0.00,Acu-Link.com,2013-06-18 09:27:00,
2013-06-18 04:42:00,73.8,73.5,29.87,SSW,202,0.0,-999.0,99,-99.99,,,0.00,Acu-Link.com,2013-06-18 09:42:00,
2013-06-18 04:58:00,73.4,73.1,29.86,SSE,157,0.0,-999.0,99,-99.99,,,0.00,Acu-Link.com,2013-06-18 09:58:00,
2013-06-18 05:13:00,73.4,73.1,29.86,SSE,157,0.0,-999.0,99,-99.99,,,0.00,Acu-Link.com,2013-06-18 10:13:00,
2013-06-18 05:28:00,73.4,73.1,29.86,SSW,202,0.0,-999.0,99,-99.99,,,0.00,Acu-Link.com,2013-06-18 10:28:00,
2013-06-18 05:43:00,73.9,73.6,29.85,South,180,3.1,-999.0,99,-99.99,,,0.00,Acu-Link.com,2013-06-18 10:43:00,
2013-06-18 05:59:00,74.1,73.8,29.85,SSW,202,2.7,-999.0,99,-99.99,,,0.00,Acu-Link.com,2013-06-18 10:59:00,
2013-06-18 06:14:00,73.8,73.5,29.87,West,270,0.0,-999.0,99,-99.99,,,0.00,Acu-Link.com,2013-06-18 11:14:00,
2013-06-18 06:29:00,73.6,73.3,29.88,SE,135,1.6,-999.0,99,-99.99,,,0.00,Acu-Link.com,2013-06-18 11:29:00,
2013-06-18 06:44:00,73.6,73.3,29.88,WNW,292,1.6,-999.0,99,-99.99,,,0.00,Acu-Link.com,2013-06-18 11:44:00,
2013-06-18 06:59:00,74.1,73.8,29.90,SSW,202,0.0,-999.0,99,-99.99,,,0.00,Acu-Link.com,2013-06-18 11:59:00,
2013-06-18 07:15:00,74.8,74.5,29.91,SSW,202,0.0,-999.0,99,-99.99,,,0.00,Acu-Link.com,2013-06-18 12:15:00,
2013-06-18 07:30:00,75.7,75.4,29.91,SSE,157,3.1,-999.0,99,-99.99,,,0.00,Acu-Link.com,2013-06-18 12:30:00,
2013-06-18 07:45:00,77.2,76.6,29.91,SSW,202,0.0,-999.0,98,-99.99,,,0.00,Acu-Link.com,2013-06-18 12:45:00,
2013-06-18 08:01:00,78.3,76.7,29.92,SW,225,4.7,-999.0,95,-99.99,,,0.00,Acu-Link.com,2013-06-18 13:01:00,
2013-06-18 08:16:00,80.6,77.4,29.92,SSW,202,3.8,-999.0,90,-99.99,,,0.00,Acu-Link.com,2013-06-18 13:16:00,
2013-06-18 08:31:00,81.3,77.4,29.92,SSW,202,4.3,-999.0,88,-99.99,,,0.00,Acu-Link.com,2013-06-18 13:31:00,
2013-06-18 08:47:00,83.1,77.8,29.91,West,270,4.3,-999.0,84,-99.99,,,0.00,Acu-Link.com,2013-06-18 13:47:00,
2013-06-18 09:02:00,85.1,78.2,29.91,WSW,247,4.7,-999.0,80,-99.99,,,0.00,Acu-Link.com,2013-06-18 14:02:00,
2013-06-18 09:17:00,85.6,78.4,29.92,West,270,6.7,-999.0,79,-99.99,,,0.00,Acu-Link.com,2013-06-18 14:17:00,
2013-06-18 09:32:00,86.4,78.3,29.91,SSW,202,6.3,-999.0,77,-99.99,,,0.00,Acu-Link.com,2013-06-18 14:32:00,
2013-06-18 09:47:00,86.4,77.5,29.92,South,180,5.8,-999.0,75,-99.99,,,0.00,Acu-Link.com,2013-06-18 14:47:00,
2013-06-18 10:03:00,86.4,77.5,29.92,West,270,6.3,-999.0,75,-99.99,,,0.00,Acu-Link.com,2013-06-18 15:03:00,
2013-06-18 10:18:00,86.0,76.7,29.92,SW,225,4.7,-999.0,74,-99.99,,,0.00,Acu-Link.com,2013-06-18 15:18:00,
2013-06-18 10:33:00,85.5,76.6,29.92,West,270,6.7,-999.0,75,-99.99,,,0.00,Acu-Link.com,2013-06-18 15:33:00,
2013-06-18 10:49:00,86.0,78.3,29.92,WSW,247,4.7,-999.0,78,-99.99,,,0.00,Acu-Link.com,2013-06-18 15:49:00,
2013-06-18 11:04:00,86.2,75.2,29.92,WNW,292,6.3,-999.0,70,-99.99,,,0.00,Acu-Link.com,2013-06-18 16:04:00,
2013-06-18 11:19:00,84.9,73.6,29.92,West,270,0.0,-999.0,69,-99.99,,,0.00,Acu-Link.com,2013-06-18 16:19:00,
2013-06-18 11:35:00,88.0,77.4,29.91,SW,225,2.7,-999.0,71,-99.99,,,0.00,Acu-Link.com,2013-06-18 16:35:00,
2013-06-18 11:50:00,89.8,75.9,29.92,SSE,157,5.8,-999.0,64,-99.99,,,0.00,Acu-Link.com,2013-06-18 16:50:00,
2013-06-18 12:05:00,89.8,76.4,29.91,West,270,6.3,-999.0,65,-99.99,,,0.00,Acu-Link.com,2013-06-18 17:05:00,
2013-06-18 12:20:00,89.8,75.0,29.91,SSW,202,9.8,-999.0,62,-99.99,,,0.00,Acu-Link.com,2013-06-18 17:20:00,
2013-06-18 12:35:00,89.8,75.5,29.90,SW,225,5.8,-999.0,63,-99.99,,,0.00,Acu-Link.com,2013-06-18 17:35:00,
2013-06-18 12:51:00,91.2,76.8,29.90,SSW,202,5.1,-999.0,63,-99.99,,,0.00,Acu-Link.com,2013-06-18 17:51:00,
2013-06-18 13:06:00,91.6,75.2,29.89,SW,225,6.7,-999.0,59,-99.99,,,0.00,Acu-Link.com,2013-06-18 18:06:00,
2013-06-18 13:21:00,89.8,77.3,29.89,WSW,247,6.3,-999.0,67,-99.99,,,0.00,Acu-Link.com,2013-06-18 18:21:00,
2013-06-18 13:36:00,91.6,76.7,29.89,South,180,8.9,-999.0,62,-99.99,,,0.00,Acu-Link.com,2013-06-18 18:36:00,
2013-06-18 13:51:00,91.2,77.3,29.88,South,180,7.4,-999.0,64,-99.99,,,0.00,Acu-Link.com,2013-06-18 18:51:00,
2013-06-18 14:07:00,90.5,76.6,29.87,SSW,202,8.3,-999.0,64,-99.99,,,0.00,Acu-Link.com,2013-06-18 19:07:00,
2013-06-18 14:22:00,90.7,77.7,29.87,SE,135,6.3,-999.0,66,-99.99,,,0.00,Acu-Link.com,2013-06-18 19:22:00,
2013-06-18 14:37:00,86.5,76.4,29.87,SSW,202,6.7,-999.0,72,-99.99,,,0.00,Acu-Link.com,2013-06-18 19:37:00,
2013-06-18 14:52:00,85.5,79.7,29.87,West,270,6.3,-999.0,83,-99.99,,,0.00,Acu-Link.com,2013-06-18 19:52:00,
2013-06-18 15:08:00,88.9,77.4,29.85,South,180,7.8,-999.0,69,-99.99,,,0.00,Acu-Link.com,2013-06-18 20:08:00,
2013-06-18 15:23:00,89.6,76.7,29.85,SSW,202,4.3,-999.0,66,-99.99,,,0.00,Acu-Link.com,2013-06-18 20:23:00,
2013-06-18 15:38:00,90.1,76.3,29.83,South,180,6.3,-999.0,64,-99.99,,,0.00,Acu-Link.com,2013-06-18 20:38:00,
2013-06-18 15:53:00,90.0,77.9,29.83,SSW,202,7.4,-999.0,68,-99.99,,,0.00,Acu-Link.com,2013-06-18 20:53:00,
2013-06-18 16:08:00,89.8,76.4,29.83,WSW,247,8.9,-999.0,65,-99.99,,,0.00,Acu-Link.com,2013-06-18 21:08:00,
2013-06-18 16:23:00,90.9,77.9,29.82,WSW,247,5.8,-999.0,66,-99.99,,,0.00,Acu-Link.com,2013-06-18 21:23:00,
2013-06-18 16:38:00,91.0,77.6,29.83,South,180,6.3,-999.0,65,-99.99,,,0.00,Acu-Link.com,2013-06-18 21:38:00,
2013-06-18 16:54:00,89.6,77.2,29.82,SW,225,5.1,-999.0,67,-99.99,,,0.00,Acu-Link.com,2013-06-18 21:54:00,
2013-06-18 17:09:00,88.0,76.9,29.83,SSE,157,3.1,-999.0,70,-99.99,,,0.00,Acu-Link.com,2013-06-18 22:09:00,
2013-06-18 17:24:00,91.2,76.8,29.83,SW,225,9.8,-999.0,63,-99.99,,,0.00,Acu-Link.com,2013-06-18 22:24:00,
2013-06-18 17:39:00,90.3,76.0,29.82,WSW,247,6.3,-999.0,63,-99.99,,,0.00,Acu-Link.com,2013-06-18 22:39:00,
2013-06-18 17:55:00,87.1,76.5,29.82,SW,225,5.8,-999.0,71,-99.99,,,0.00,Acu-Link.com,2013-06-18 22:55:00,
2013-06-18 18:10:00,86.4,76.7,29.82,SW,225,4.7,-999.0,73,-99.99,,,0.00,Acu-Link.com,2013-06-18 23:10:00,
2013-06-18 18:25:00,86.0,77.5,29.83,SSW,202,2.2,-999.0,76,-99.99,,,0.00,Acu-Link.com,2013-06-18 23:25:00,
2013-06-18 18:40:00,85.3,78.4,29.84,South,180,1.6,-999.0,80,-99.99,,,0.00,Acu-Link.com,2013-06-18 23:40:00,
2013-06-18 18:56:00,84.9,78.0,29.84,West,270,3.1,-999.0,80,-99.99,,,0.00,Acu-Link.com,2013-06-18 23:56:00,
2013-06-18 19:11:00,78.6,71.5,29.86,North,0,19.7,-999.0,79,-99.99,,,0.00,Acu-Link.com,2013-06-19 00:11:00,
2013-06-18 19:26:00,77.0,71.4,29.89,NNW,337,8.9,-999.0,83,-99.99,,,0.00,Acu-Link.com,2013-06-19 00:26:00,
2013-06-18 19:41:00,74.8,72.0,29.90,North,0,9.4,-999.0,91,-99.99,,,0.00,Acu-Link.com,2013-06-19 00:41:00,
2013-06-18 19:56:00,73.0,72.1,29.91,NNE,22,7.4,-999.0,97,-99.99,,,0.14,Acu-Link.com,2013-06-19 00:56:00,
2013-06-18 20:12:00,72.7,72.4,29.90,NNE,22,6.3,-999.0,99,-99.99,,,0.21,Acu-Link.com,2013-06-19 01:12:00,
2013-06-18 20:27:00,72.5,72.2,29.89,North,0,7.8,-999.0,99,-99.99,,,0.22,Acu-Link.com,2013-06-19 01:27:00,
2013-06-18 20:42:00,72.1,71.8,29.90,NE,45,1.6,-999.0,99,-99.99,,,0.22,Acu-Link.com,2013-06-19 01:42:00,
2013-06-18 20:57:00,72.1,71.8,29.91,SSE,157,2.7,-999.0,99,-99.99,,,0.22,Acu-Link.com,2013-06-19 01:57:00,
2013-06-18 21:12:00,72.1,71.8,29.91,NNE,22,2.7,-999.0,99,-99.99,,,0.24,Acu-Link.com,2013-06-19 02:12:00,
2013-06-18 21:28:00,72.0,71.7,29.89,ENE,67,0.0,-999.0,99,-99.99,,,0.26,Acu-Link.com,2013-06-19 02:28:00,
2013-06-18 21:43:00,71.6,71.3,29.89,NE,45,0.0,-999.0,99,-99.99,,,0.28,Acu-Link.com,2013-06-19 02:43:00,
2013-06-18 21:58:00,71.4,71.1,29.89,SSE,157,0.0,-999.0,99,-99.99,,,0.28,Acu-Link.com,2013-06-19 02:58:00,
2013-06-18 22:13:00,71.4,71.1,29.89,South,180,0.0,-999.0,99,-99.99,,,0.28,Acu-Link.com,2013-06-19 03:13:00,
2013-06-18 22:29:00,71.2,70.9,29.90,SE,135,1.6,-999.0,99,-99.99,,,0.28,Acu-Link.com,2013-06-19 03:29:00,
2013-06-18 22:44:00,71.2,70.9,29.89,ESE,112,2.2,-999.0,99,-99.99,,,0.28,Acu-Link.com,2013-06-19 03:44:00,
2013-06-18 22:59:00,71.2,70.9,29.88,SE,135,3.8,-999.0,99,-99.99,,,0.28,Acu-Link.com,2013-06-19 03:59:00,
2013-06-18 23:14:00,71.2,70.9,29.88,South,180,2.2,-999.0,99,-99.99,,,0.28,Acu-Link.com,2013-06-19 04:14:00,
2013-06-18 23:30:00,71.4,71.1,29.89,ESE,112,2.7,-999.0,99,-99.99,,,0.28,Acu-Link.com,2013-06-19 04:30:00,
2013-06-18 23:45:00,71.6,71.3,29.89,ESE,112,0.0,-999.0,99,-99.99,,,0.28,Acu-Link.com,2013-06-19 04:45:00,